{"data":{"norad_id":57063,"epoch":"2026-09-20T22:33:09.822528Z","epoch_age_seconds":82932,"freshness":"FRESH","line1":"1 57063U 23088R   26263.93969702 -.00000205  00000+0  20792-5 0  9998","line2":"2 57063  42.9987  87.9613 0001014 252.3161 107.7580 15.27575077180195","mean_motion":15.27575077,"eccentricity":0.0001014,"inclination_deg":42.9987,"raan_deg":87.9613,"arg_perigee_deg":252.3161,"mean_anomaly_deg":107.758,"bstar":2.0792e-6,"rev_number":18019,"period_min":94.267052512274,"perigee_km":482.36811154738,"apogee_km":483.75956307718,"semimajor_km":6861.2008373123,"source":"CELESTRAK","updated_at":"2026-09-21T09:00:33.550951Z"}}